STARLINK-3792, 52339

Orbit data source: Space-Track

STARLINK-3792, 52339 is a payload satellite owned by SpaceX/Seattle (US) in LEO that was launched on Fri, 29 Apr 2022 UTC via an FALCON 9 launch vehicle from the Air Force Eastern Test Range (AFETR). Payload-class satellites include a variety of spacecraft equipped with specific instruments for various scientific and technological missions. These include communications satellites like Starlink; space stations such as the ISS; scientific satellites like the Hubble; Earth observation satellites from companies like Planet Labs, Umbra, and HawkEye 360; GPS; miniature CubeSats for education and research; and military/defense satellites.

Loading next visibility...
Identifier
52339, 2022-045J
Orbit
LEO
Country
Flag of USUS
Related business
Manufacturer
SpaceX/Seattle
Mission
Operational Commercial Communications
Bus & Motor
STARLINK, Unknown motor
Mass
297 kg wet, ~275 kg dry
Launch date (UTC)
2022-04-29 (4 years ago)
Launch vehicle
FALCON 9
Launch site
Air Force Eastern Test Range (AFETR)
Object type
Payload
Rocket body
Debris
Shape & HBR
Box + 1 Pan, 10.1 m
Radar Cross Section
11.087 m², Large (>1 m²)

Expand to show TLE details & history
Last TLE update: 2 days ago

TLE from 2 days ago
0 STARLINK-3792
1 52339U 22045J   26171.19815705  .00000611  00000-0  56477-4 0  9999
2 52339  53.1624 108.4739 0001464  88.6316 271.4843 15.08836442231123
Epoch: 2026-06-20T04:45Z
TLE epoch observation values (Epoch: 2026-06-20T04:45:20.769Z)
Latitude
-0.00002°
Longitude
128.72113°
Altitude
540.62 km
Speed
7.593 km/s
True Right ascension
07h 13m 53s
True Declination
0° 00' 00"
Sunlit
Object was in daylight at epoch
Visualization orbit readout
Latitude
Unknown
Longitude
Unknown
Altitude
Unknown
Speed
Unknown
Apparent Right ascension
Unknown
Apparent Declination
Unknown
Sunlit
N/A
Visualization observer readout
Local Sidereal Time
21:44:36
Azimuth
Unknown
Elevation
Unknown
Doppler factor
Unknown
Orbital elements
Apogee altitude
541.021 km
Perigee altitude
538.995 km
Semi-major axis
6,918.145 km
Eccentricity
0.00015
Inclination
53.1624°
RAAN
108.4739°
Arg. of periapsis
88.6316°
True anomaly
271.46753°
Mean anomaly
271.4843°
Eccentric anomaly
271.47591°
Mean motion
3.77189 °/min
Orbital period
95.44 mins
BSTAR
0.000056477
Loading maneuver chart data...
Computing Atmospheric mass density...
Loading historical data...
Loading historical data...
Loading historical data...
Loading historical data...
Loading historical data...
Loading historical data...
Loading historical data...

Documentation

Showing up to 5 results
|